FENGYUN 1C DEB, 33738

Orbit data source: Space-Track

FENGYUN 1C DEB, 33738 is space debris in SSO originally from a launch on Mon, 10 May 1999 UTC launched from the Taiyaun Space Center, China (TSC). Fengyun 1C debris stems from the Chinese weather satellite Fengyun-1C, which was intentionally destroyed by a Chinese anti-satellite missile in 2007. This event dramatically increased the amount of space debris, with thousands of trackable fragments posing hazards to satellites and human spaceflight. The Fengyun 1C debris cloud has become a focal point in discussions about space sustainability and the need for international regulations to prevent the creation of new debris.

Loading next visibility...
Identifier
33738, 1999-025DJB
Orbit
SSO
Country
Flag of CNCN / PRC
Related business
Manufacturer
Unknown
Mission
Spacecraft
Bus & Motor
Unknown
Mass
Unknown
Launch date (UTC)
1999-05-10 (27 years ago)
Launch vehicle
Unknown
Launch site
Taiyaun Space Center, China (TSC)
Object type
Payload
Rocket body
Debris
Shape & HBR
Unknown shape, 0.1 m
Radar Cross Section
Small (<0.1 m²)

Expand to show TLE details & history
Last TLE update: 17 hours ago

TLE from 17 hours ago
0 FENGYUN 1C DEB
1 33738U 99025DJB 26145.41371383  .00000561  00000-0  35637-3 0  9996
2 33738  99.1272 210.2930 0186652 291.0223  82.4558 13.99880855915261
Epoch: 2026-05-25T09:55Z
TLE epoch observation values (Epoch: 2026-05-25T09:55:44.874Z)
Latitude
15.37999°
Longitude
175.8346°
Altitude
881.066 km
Speed
7.421 km/s
True Right ascension
13h 51m 05s
True Declination
15° 17' 38"
Sunlit
Object was in full shadow at epoch
Visualization orbit readout
Latitude
Unknown
Longitude
Unknown
Altitude
Unknown
Speed
Unknown
Apparent Right ascension
Unknown
Apparent Declination
Unknown
Sunlit
N/A
Visualization observer readout
Local Sidereal Time
12:07:07
Azimuth
Unknown
Elevation
Unknown
Doppler factor
Unknown
Orbital elements
Apogee altitude
1,027.1 km
Perigee altitude
755.725 km
Semi-major axis
7,269.549 km
Eccentricity
0.01867
Inclination
99.1272°
RAAN
210.293°
Arg. of periapsis
291.0223°
True anomaly
84.58219°
Mean anomaly
82.4558°
Eccentric anomaly
83.5184°
Mean motion
3.50172 °/min
Orbital period
102.81 mins
BSTAR
0.00035637
Loading maneuver chart data...
Computing Atmospheric mass density...
Loading historical data...
Loading historical data...
Loading historical data...
Loading historical data...
Loading historical data...
Loading historical data...
Loading historical data...

Documentation

Showing up to 5 results
|